Year,Month,Day,Hour,Minute,Value (Times are PST for temperature in C)
2007,12,03,00,00,2.60
2007,12,03,00,01,2.60
2007,12,03,00,02,2.60
2007,12,03,00,03,2.60
2007,12,03,00,04,2.60
2007,12,03,00,05,2.60
2007,12,03,00,06,2.60
2007,12,03,00,07,2.60
2007,12,03,00,08,2.60
2007,12,03,00,09,2.60
2007,12,03,00,10,2.60
2007,12,03,00,11,2.60
2007,12,03,00,12,2.60
2007,12,03,00,13,2.60
2007,12,03,00,14,2.60
2007,12,03,00,15,2.60
2007,12,03,00,16,2.60
2007,12,03,00,17,2.60
2007,12,03,00,18,2.50
2007,12,03,00,19,2.50
2007,12,03,00,20,2.50
2007,12,03,00,21,2.50
2007,12,03,00,22,2.50
2007,12,03,00,23,2.50
2007,12,03,00,24,2.50
2007,12,03,00,25,2.50
2007,12,03,00,26,2.50
2007,12,03,00,27,2.50
2007,12,03,00,28,2.50
2007,12,03,00,29,2.40
2007,12,03,00,30,2.40
2007,12,03,00,31,2.40
2007,12,03,00,32,2.40
2007,12,03,00,33,2.40
2007,12,03,00,34,2.40
2007,12,03,00,35,2.40
2007,12,03,00,36,2.40
2007,12,03,00,37,2.40
2007,12,03,00,38,2.40
2007,12,03,00,39,2.40
2007,12,03,00,40,2.40
2007,12,03,00,41,2.40
2007,12,03,00,42,2.40
2007,12,03,00,43,2.50
2007,12,03,00,44,2.50
2007,12,03,00,45,2.50
2007,12,03,00,46,2.50
2007,12,03,00,47,2.50
2007,12,03,00,48,2.50
2007,12,03,00,49,2.50
2007,12,03,00,50,2.50
2007,12,03,00,51,2.50
2007,12,03,00,52,2.50
2007,12,03,00,53,2.50
2007,12,03,00,54,2.50
2007,12,03,00,55,2.50
2007,12,03,00,56,2.50
2007,12,03,00,57,2.50
2007,12,03,00,58,2.50
2007,12,03,00,59,2.50
2007,12,03,01,00,2.50
2007,12,03,01,01,2.50
2007,12,03,01,02,2.50
2007,12,03,01,03,2.50
2007,12,03,01,04,2.60
2007,12,03,01,05,2.60
2007,12,03,01,06,2.60
2007,12,03,01,07,2.60
2007,12,03,01,08,2.70
2007,12,03,01,09,2.70
2007,12,03,01,10,2.70
2007,12,03,01,11,2.70
2007,12,03,01,12,2.70
2007,12,03,01,13,2.80
2007,12,03,01,14,2.80
2007,12,03,01,15,2.80
2007,12,03,01,16,2.80
2007,12,03,01,17,2.90
2007,12,03,01,18,2.90
2007,12,03,01,19,2.90
2007,12,03,01,20,2.90
2007,12,03,01,21,2.90
2007,12,03,01,22,2.90
2007,12,03,01,23,3.00
2007,12,03,01,24,3.10
2007,12,03,01,25,3.10
2007,12,03,01,26,3.10
2007,12,03,01,27,3.10
2007,12,03,01,28,3.20
2007,12,03,01,29,3.30
2007,12,03,01,30,3.60
2007,12,03,01,31,3.70
2007,12,03,01,32,3.80
2007,12,03,01,33,4.00
2007,12,03,01,34,4.10
2007,12,03,01,35,4.40
2007,12,03,01,36,4.80
2007,12,03,01,37,5.20
2007,12,03,01,38,5.60
2007,12,03,01,39,5.90
2007,12,03,01,40,6.00
2007,12,03,01,41,6.10
2007,12,03,01,42,6.20
2007,12,03,01,43,6.20
2007,12,03,01,44,6.40
2007,12,03,01,45,6.40
2007,12,03,01,46,6.60
2007,12,03,01,47,6.80
2007,12,03,01,48,6.90
2007,12,03,01,49,6.90
2007,12,03,01,50,7.00
2007,12,03,01,51,7.00
2007,12,03,01,52,7.10
2007,12,03,01,53,7.10
2007,12,03,01,54,7.10
2007,12,03,01,55,7.20
2007,12,03,01,56,7.30
2007,12,03,01,57,7.30
2007,12,03,01,58,7.40
2007,12,03,01,59,7.40
2007,12,03,02,00,7.40
2007,12,03,02,01,7.40
2007,12,03,02,02,7.40
2007,12,03,02,03,7.40
2007,12,03,02,04,7.50
2007,12,03,02,05,7.50
2007,12,03,02,06,7.50
2007,12,03,02,07,7.50
2007,12,03,02,08,7.50
2007,12,03,02,09,7.50
2007,12,03,02,10,7.50
2007,12,03,02,11,7.50
2007,12,03,02,12,7.60
2007,12,03,02,13,7.60
2007,12,03,02,14,7.60
2007,12,03,02,15,7.60
2007,12,03,02,16,7.60
2007,12,03,02,17,7.70
2007,12,03,02,18,7.70
2007,12,03,02,19,7.70
2007,12,03,02,20,7.80
2007,12,03,02,21,7.80
2007,12,03,02,22,7.80
2007,12,03,02,23,7.80
2007,12,03,02,24,7.80
2007,12,03,02,25,7.80
2007,12,03,02,26,7.80
2007,12,03,02,27,7.80
2007,12,03,02,28,7.80
2007,12,03,02,29,7.80
2007,12,03,02,30,7.80
2007,12,03,02,31,7.80
2007,12,03,02,32,7.80
2007,12,03,02,33,7.80
2007,12,03,02,34,7.80
2007,12,03,02,35,7.80
2007,12,03,02,36,7.80
2007,12,03,02,37,7.80
2007,12,03,02,38,7.80
2007,12,03,02,39,7.80
2007,12,03,02,40,7.80
2007,12,03,02,41,7.80
2007,12,03,02,42,7.80
2007,12,03,02,43,7.80
2007,12,03,02,44,7.80
2007,12,03,02,45,7.80
2007,12,03,02,46,7.80
2007,12,03,02,47,7.80
2007,12,03,02,48,7.80
2007,12,03,02,49,7.80
2007,12,03,02,50,7.80
2007,12,03,02,51,7.90
2007,12,03,02,52,7.90
2007,12,03,02,53,7.90
2007,12,03,02,54,7.90
2007,12,03,02,55,7.90
2007,12,03,02,56,7.90
2007,12,03,02,57,7.90
2007,12,03,02,58,7.90
2007,12,03,02,59,7.90
2007,12,03,03,00,7.90
2007,12,03,03,01,7.90
2007,12,03,03,02,7.90
2007,12,03,03,03,7.90
2007,12,03,03,04,7.90
2007,12,03,03,05,7.90
2007,12,03,03,06,7.90
2007,12,03,03,07,7.90
2007,12,03,03,08,7.90
2007,12,03,03,09,7.90
2007,12,03,03,10,7.90
2007,12,03,03,11,7.90
2007,12,03,03,12,8.00
2007,12,03,03,13,8.00
2007,12,03,03,14,8.00
2007,12,03,03,15,8.00
2007,12,03,03,16,8.00
2007,12,03,03,17,8.00
2007,12,03,03,18,8.00
2007,12,03,03,19,8.00
2007,12,03,03,20,8.00
2007,12,03,03,21,8.00
2007,12,03,03,22,8.00
2007,12,03,03,23,8.00
2007,12,03,03,24,8.00
2007,12,03,03,25,8.00
2007,12,03,03,26,8.00
2007,12,03,03,27,8.00
2007,12,03,03,28,8.00
2007,12,03,03,29,8.00
2007,12,03,03,30,8.10
2007,12,03,03,31,8.00
2007,12,03,03,32,8.00
2007,12,03,03,33,8.00
2007,12,03,03,34,8.00
2007,12,03,03,35,8.00
2007,12,03,03,36,8.10
2007,12,03,03,37,8.10
2007,12,03,03,38,8.10
2007,12,03,03,39,8.10
2007,12,03,03,40,8.10
2007,12,03,03,41,8.10
2007,12,03,03,42,8.10
2007,12,03,03,43,8.10
2007,12,03,03,44,8.00
2007,12,03,03,45,8.00
2007,12,03,03,46,8.10
2007,12,03,03,47,8.10
2007,12,03,03,48,8.10
2007,12,03,03,49,8.10
2007,12,03,03,50,8.10
2007,12,03,03,51,8.10
2007,12,03,03,52,8.10
2007,12,03,03,53,8.10
2007,12,03,03,54,8.10
2007,12,03,03,55,8.10
2007,12,03,03,56,8.10
2007,12,03,03,57,8.20
2007,12,03,03,58,8.20
2007,12,03,03,59,8.10
2007,12,03,04,00,8.10
2007,12,03,04,01,8.20
2007,12,03,04,02,8.20
2007,12,03,04,03,8.20
2007,12,03,04,04,8.20
2007,12,03,04,05,8.20
2007,12,03,04,06,8.20
2007,12,03,04,07,8.20
2007,12,03,04,08,8.20
2007,12,03,04,09,8.20
2007,12,03,04,10,8.20
2007,12,03,04,11,8.20
2007,12,03,04,12,8.20
2007,12,03,04,13,8.20
2007,12,03,04,14,8.20
2007,12,03,04,15,8.20
2007,12,03,04,16,8.20
2007,12,03,04,17,8.20
2007,12,03,04,18,8.20
2007,12,03,04,19,8.20
2007,12,03,04,20,8.20
2007,12,03,04,21,8.20
2007,12,03,04,22,8.20
2007,12,03,04,23,8.20
2007,12,03,04,24,8.20
2007,12,03,04,25,8.20
2007,12,03,04,26,8.20
2007,12,03,04,27,8.30
2007,12,03,04,28,8.30
2007,12,03,04,29,8.30
2007,12,03,04,30,8.40
2007,12,03,04,31,8.40
2007,12,03,04,32,8.40
2007,12,03,04,33,8.30
2007,12,03,04,34,8.40
2007,12,03,04,35,8.40
2007,12,03,04,36,8.40
2007,12,03,04,37,8.40
2007,12,03,04,38,8.40
2007,12,03,04,39,8.50
2007,12,03,04,40,8.50
2007,12,03,04,41,8.50
2007,12,03,04,42,8.50
2007,12,03,04,43,8.40
2007,12,03,04,44,8.40
2007,12,03,04,45,8.40
2007,12,03,04,46,8.40
2007,12,03,04,47,8.40
2007,12,03,04,48,8.40
2007,12,03,04,49,8.40
2007,12,03,04,50,8.40
2007,12,03,04,51,8.30
2007,12,03,04,52,8.30
2007,12,03,04,53,8.20
2007,12,03,04,54,8.20
2007,12,03,04,55,8.20
2007,12,03,04,56,8.20
2007,12,03,04,57,8.20
2007,12,03,04,58,8.10
2007,12,03,04,59,8.10
2007,12,03,05,00,8.00
2007,12,03,05,01,8.00
2007,12,03,05,02,7.90
2007,12,03,05,03,7.90
2007,12,03,05,04,7.80
2007,12,03,05,05,7.80
2007,12,03,05,06,7.80
2007,12,03,05,07,7.80
2007,12,03,05,08,7.80
2007,12,03,05,09,7.70
2007,12,03,05,10,7.70
2007,12,03,05,11,7.60
2007,12,03,05,12,7.60
2007,12,03,05,13,7.60
2007,12,03,05,14,7.60
2007,12,03,05,15,7.60
2007,12,03,05,16,7.50
2007,12,03,05,17,7.50
2007,12,03,05,18,7.50
2007,12,03,05,19,7.40
2007,12,03,05,20,7.40
2007,12,03,05,21,7.40
2007,12,03,05,22,7.40
2007,12,03,05,23,7.40
2007,12,03,05,24,7.30
2007,12,03,05,25,7.30
2007,12,03,05,26,7.30
2007,12,03,05,27,7.30
2007,12,03,05,28,7.30
2007,12,03,05,29,7.30
2007,12,03,05,30,7.30
2007,12,03,05,31,7.30
2007,12,03,05,32,7.30
2007,12,03,05,33,7.30
2007,12,03,05,34,7.30
2007,12,03,05,35,7.30
2007,12,03,05,36,7.30
2007,12,03,05,37,7.30
2007,12,03,05,38,7.30
2007,12,03,05,39,7.30
2007,12,03,05,40,7.30
2007,12,03,05,41,7.30
2007,12,03,05,42,7.30
2007,12,03,05,43,7.20
2007,12,03,05,44,7.20
2007,12,03,05,45,7.20
2007,12,03,05,46,7.20
2007,12,03,05,47,7.20
2007,12,03,05,48,7.20
2007,12,03,05,49,7.20
2007,12,03,05,50,7.20
2007,12,03,05,51,7.20
2007,12,03,05,52,7.20
2007,12,03,05,53,7.20
2007,12,03,05,54,7.10
2007,12,03,05,55,7.10
2007,12,03,05,56,7.10
2007,12,03,05,57,7.10
2007,12,03,05,58,7.10
2007,12,03,05,59,7.10
2007,12,03,06,00,7.10
2007,12,03,06,01,7.10
2007,12,03,06,02,7.10
2007,12,03,06,03,7.10
2007,12,03,06,04,7.00
2007,12,03,06,05,7.00
2007,12,03,06,06,7.00
2007,12,03,06,07,7.00
2007,12,03,06,08,7.00
2007,12,03,06,09,7.00
2007,12,03,06,10,7.00
2007,12,03,06,11,7.00
2007,12,03,06,12,7.00
2007,12,03,06,13,7.00
2007,12,03,06,14,7.00
2007,12,03,06,15,6.90
2007,12,03,06,16,6.90
2007,12,03,06,17,6.90
2007,12,03,06,18,6.90
2007,12,03,06,19,6.90
2007,12,03,06,20,6.90
2007,12,03,06,21,6.90
2007,12,03,06,22,6.90
2007,12,03,06,23,6.80
2007,12,03,06,24,6.80
2007,12,03,06,25,6.80
2007,12,03,06,26,6.80
2007,12,03,06,27,6.80
2007,12,03,06,28,6.80
2007,12,03,06,29,6.80
2007,12,03,06,30,6.80
2007,12,03,06,31,6.90
2007,12,03,06,32,6.90
2007,12,03,06,33,6.90
2007,12,03,06,34,6.90
2007,12,03,06,35,6.90
2007,12,03,06,36,6.90
2007,12,03,06,37,6.90
2007,12,03,06,38,6.90
2007,12,03,06,39,6.90
2007,12,03,06,40,6.90
2007,12,03,06,41,6.90
2007,12,03,06,42,6.90
2007,12,03,06,43,6.90
2007,12,03,06,44,6.90
2007,12,03,06,45,6.90
2007,12,03,06,46,6.90
2007,12,03,06,47,6.90
2007,12,03,06,48,6.90
2007,12,03,06,49,6.90
2007,12,03,06,50,6.90
2007,12,03,06,51,6.90
2007,12,03,06,52,6.90
2007,12,03,06,53,6.90
2007,12,03,06,54,6.80
2007,12,03,06,55,6.80
2007,12,03,06,56,6.80
2007,12,03,06,57,6.80
2007,12,03,06,58,6.80
2007,12,03,06,59,6.80
2007,12,03,07,00,6.80
2007,12,03,07,01,6.80
2007,12,03,07,02,6.80
2007,12,03,07,03,6.80
2007,12,03,07,04,6.80
2007,12,03,07,05,6.80
2007,12,03,07,06,6.70
2007,12,03,07,07,6.70
2007,12,03,07,08,6.80
2007,12,03,07,09,6.80
2007,12,03,07,10,6.80
2007,12,03,07,11,6.80
2007,12,03,07,12,6.80
2007,12,03,07,13,6.80
2007,12,03,07,14,6.80
2007,12,03,07,15,6.80
2007,12,03,07,16,6.80
2007,12,03,07,17,6.80
2007,12,03,07,18,6.80
2007,12,03,07,19,6.80
2007,12,03,07,20,6.80
2007,12,03,07,21,6.80
2007,12,03,07,22,6.80
2007,12,03,07,23,6.80
2007,12,03,07,24,6.80
2007,12,03,07,25,6.80
2007,12,03,07,26,6.80
2007,12,03,07,27,6.80
2007,12,03,07,28,6.80
2007,12,03,07,29,6.80
2007,12,03,07,30,6.80
2007,12,03,07,31,6.80
2007,12,03,07,32,6.80
2007,12,03,07,33,6.80
2007,12,03,07,34,6.80
2007,12,03,07,35,6.80
2007,12,03,07,36,6.80
2007,12,03,07,37,6.80
2007,12,03,07,38,6.80
2007,12,03,07,39,6.80
2007,12,03,07,40,6.80
2007,12,03,07,41,6.80
2007,12,03,07,42,6.80
2007,12,03,07,43,6.90
2007,12,03,07,44,6.90
2007,12,03,07,45,7.00
2007,12,03,07,46,7.10
2007,12,03,07,47,7.10
2007,12,03,07,48,7.20
2007,12,03,07,49,7.20
2007,12,03,07,50,7.20
2007,12,03,07,51,7.10
2007,12,03,07,52,7.10
2007,12,03,07,53,7.00
2007,12,03,07,54,7.00
2007,12,03,07,55,7.00
2007,12,03,07,56,7.00
2007,12,03,07,57,7.00
2007,12,03,07,58,7.00
2007,12,03,07,59,7.00
2007,12,03,08,00,7.00
2007,12,03,08,01,7.00
2007,12,03,08,02,7.00
2007,12,03,08,03,7.10
2007,12,03,08,04,7.10
2007,12,03,08,05,7.10
2007,12,03,08,06,7.10
2007,12,03,08,07,7.10
2007,12,03,08,08,7.10
2007,12,03,08,09,7.10
2007,12,03,08,10,7.20
2007,12,03,08,11,7.20
2007,12,03,08,12,7.30
2007,12,03,08,13,7.30
2007,12,03,08,14,7.30
2007,12,03,08,15,7.30
2007,12,03,08,16,7.30
2007,12,03,08,17,7.30
2007,12,03,08,18,7.30
2007,12,03,08,19,7.30
2007,12,03,08,20,7.30
2007,12,03,08,21,7.30
2007,12,03,08,22,7.30
2007,12,03,08,23,7.30
2007,12,03,08,24,7.30
2007,12,03,08,25,7.30
2007,12,03,08,26,7.40
2007,12,03,08,27,7.40
2007,12,03,08,28,7.40
2007,12,03,08,29,7.50
2007,12,03,08,30,7.50
2007,12,03,08,31,7.60
2007,12,03,08,32,7.60
2007,12,03,08,33,7.60
2007,12,03,08,34,7.70
2007,12,03,08,35,7.70
2007,12,03,08,36,7.70
2007,12,03,08,37,7.70
2007,12,03,08,38,7.70
2007,12,03,08,39,7.70
2007,12,03,08,40,7.70
2007,12,03,08,41,7.70
2007,12,03,08,42,7.70
2007,12,03,08,43,7.80
2007,12,03,08,44,7.90
2007,12,03,08,45,8.00
2007,12,03,08,46,8.00
2007,12,03,08,47,8.10
2007,12,03,08,48,8.10
2007,12,03,08,49,8.10
2007,12,03,08,50,8.10
2007,12,03,08,51,8.10
2007,12,03,08,52,8.20
2007,12,03,08,53,8.20
2007,12,03,08,54,8.20
2007,12,03,08,55,8.20
2007,12,03,08,56,8.20
2007,12,03,08,57,8.20
2007,12,03,08,58,8.20
2007,12,03,08,59,8.20
2007,12,03,09,00,8.20
2007,12,03,09,01,8.30
2007,12,03,09,02,8.30
2007,12,03,09,03,8.30
2007,12,03,09,04,8.40
2007,12,03,09,05,8.40
2007,12,03,09,06,8.50
2007,12,03,09,07,8.50
2007,12,03,09,08,8.50
2007,12,03,09,09,8.50
2007,12,03,09,10,8.50
2007,12,03,09,11,8.50
2007,12,03,09,12,8.60
2007,12,03,09,13,8.60
2007,12,03,09,14,8.60
2007,12,03,09,15,8.60
2007,12,03,09,16,8.60
2007,12,03,09,17,8.60
2007,12,03,09,18,8.70
2007,12,03,09,19,8.70
2007,12,03,09,20,8.70
2007,12,03,09,21,8.60
2007,12,03,09,22,8.60
2007,12,03,09,23,8.60
2007,12,03,09,24,8.60
2007,12,03,09,25,8.50
2007,12,03,09,26,8.50
2007,12,03,09,27,8.60
2007,12,03,09,28,8.60
2007,12,03,09,29,8.60
2007,12,03,09,30,8.60
2007,12,03,09,31,8.60
2007,12,03,09,32,8.60
2007,12,03,09,33,8.60
2007,12,03,09,34,8.60
2007,12,03,09,35,8.60
2007,12,03,09,36,8.60
2007,12,03,09,37,8.60
2007,12,03,09,38,8.60
2007,12,03,09,39,8.60
2007,12,03,09,40,8.50
2007,12,03,09,41,8.50
2007,12,03,09,42,8.50
2007,12,03,09,43,8.50
2007,12,03,09,44,8.60
2007,12,03,09,45,8.60
2007,12,03,09,46,8.60
2007,12,03,09,47,8.60
2007,12,03,09,48,8.60
2007,12,03,09,49,8.60
2007,12,03,09,50,8.60
2007,12,03,09,51,8.60
2007,12,03,09,52,8.60
2007,12,03,09,53,8.60
2007,12,03,09,54,8.60
2007,12,03,09,55,8.60
2007,12,03,09,56,8.60
2007,12,03,09,57,8.60
2007,12,03,09,58,8.60
2007,12,03,09,59,8.60
2007,12,03,10,00,8.60
2007,12,03,10,01,8.50
2007,12,03,10,02,8.50
2007,12,03,10,03,8.50
2007,12,03,10,04,8.40
2007,12,03,10,05,8.40
2007,12,03,10,06,8.40
2007,12,03,10,07,8.40
2007,12,03,10,08,8.40
2007,12,03,10,09,8.50
2007,12,03,10,10,8.50
2007,12,03,10,11,8.50
2007,12,03,10,12,8.50
2007,12,03,10,13,8.50
2007,12,03,10,14,8.50
2007,12,03,10,15,8.50
2007,12,03,10,16,8.50
2007,12,03,10,17,8.40
2007,12,03,10,18,8.40
2007,12,03,10,19,8.40
2007,12,03,10,20,8.40
2007,12,03,10,21,8.40
2007,12,03,10,22,8.30
2007,12,03,10,23,8.30
2007,12,03,10,24,8.30
2007,12,03,10,25,8.40
2007,12,03,10,26,8.40
2007,12,03,10,27,8.40
2007,12,03,10,28,8.40
2007,12,03,10,29,8.40
2007,12,03,10,30,8.40
2007,12,03,10,31,8.40
2007,12,03,10,32,8.40
2007,12,03,10,33,8.40
2007,12,03,10,34,8.40
2007,12,03,10,35,8.40
2007,12,03,10,36,8.40
2007,12,03,10,37,8.40
2007,12,03,10,38,8.40
2007,12,03,10,39,8.40
2007,12,03,10,40,8.40
2007,12,03,10,41,8.40
2007,12,03,10,42,8.40
2007,12,03,10,43,8.40
2007,12,03,10,44,8.40
2007,12,03,10,45,8.40
2007,12,03,10,46,8.40
2007,12,03,10,47,8.40
2007,12,03,10,48,8.40
2007,12,03,10,49,8.50
2007,12,03,10,50,8.50
2007,12,03,10,51,8.60
2007,12,03,10,52,8.60
2007,12,03,10,53,8.50
2007,12,03,10,54,8.50
2007,12,03,10,55,8.50
2007,12,03,10,56,8.50
2007,12,03,10,57,8.60
2007,12,03,10,58,8.60
2007,12,03,10,59,8.60
2007,12,03,11,00,8.70
2007,12,03,11,01,8.60
2007,12,03,11,02,8.60
2007,12,03,11,03,8.70
2007,12,03,11,04,8.70
2007,12,03,11,05,8.70
2007,12,03,11,06,8.70
2007,12,03,11,07,8.70
2007,12,03,11,08,8.70
2007,12,03,11,09,8.70
2007,12,03,11,10,8.70
2007,12,03,11,11,8.70
2007,12,03,11,12,8.70
2007,12,03,11,13,8.70
2007,12,03,11,14,8.70
2007,12,03,11,15,8.70
2007,12,03,11,16,8.70
2007,12,03,11,17,8.70
2007,12,03,11,18,8.70
2007,12,03,11,19,8.70
2007,12,03,11,20,8.70
2007,12,03,11,21,8.80
2007,12,03,11,22,8.80
2007,12,03,11,23,8.80
2007,12,03,11,24,8.80
2007,12,03,11,25,8.80
2007,12,03,11,26,8.70
2007,12,03,11,27,8.70
2007,12,03,11,28,8.80
2007,12,03,11,29,8.80
2007,12,03,11,30,8.80
2007,12,03,11,31,8.80
2007,12,03,11,32,8.80
2007,12,03,11,33,8.80
2007,12,03,11,34,8.90
2007,12,03,11,35,8.90
2007,12,03,11,36,8.90
2007,12,03,11,37,8.90
2007,12,03,11,38,8.90
2007,12,03,11,39,8.90
2007,12,03,11,40,8.90
2007,12,03,11,41,8.90
2007,12,03,11,42,8.80
2007,12,03,11,43,8.80
2007,12,03,11,44,8.80
2007,12,03,11,45,8.80
2007,12,03,11,46,8.80
2007,12,03,11,47,8.80
2007,12,03,11,48,8.90
2007,12,03,11,49,8.90
2007,12,03,11,50,8.90
2007,12,03,11,51,8.90
2007,12,03,11,52,8.90
2007,12,03,11,53,8.90
2007,12,03,11,54,8.90
2007,12,03,11,55,8.90
2007,12,03,11,56,8.90
2007,12,03,11,57,8.90
2007,12,03,11,58,8.90
2007,12,03,11,59,8.90
2007,12,03,12,00,8.90
2007,12,03,12,01,8.90
2007,12,03,12,02,8.90
2007,12,03,12,03,8.90
2007,12,03,12,04,8.90
2007,12,03,12,05,9.00
2007,12,03,12,06,9.00
2007,12,03,12,07,9.00
2007,12,03,12,08,9.10
2007,12,03,12,09,9.10
2007,12,03,12,10,9.00
2007,12,03,12,11,9.00
2007,12,03,12,12,9.00
2007,12,03,12,13,9.00
2007,12,03,12,14,9.10
2007,12,03,12,15,9.10
2007,12,03,12,16,9.10
2007,12,03,12,17,9.10
2007,12,03,12,18,9.10
2007,12,03,12,19,9.20
2007,12,03,12,20,9.20
2007,12,03,12,21,9.20
2007,12,03,12,22,9.20
2007,12,03,12,23,9.20
2007,12,03,12,24,9.20
2007,12,03,12,25,9.20
2007,12,03,12,26,9.20
2007,12,03,12,27,9.20
2007,12,03,12,28,9.20
2007,12,03,12,29,9.30
2007,12,03,12,30,9.40
2007,12,03,12,31,9.70
2007,12,03,12,32,9.70
2007,12,03,12,33,9.80
2007,12,03,12,34,9.90
2007,12,03,12,35,10.00
2007,12,03,12,36,10.30
2007,12,03,12,37,10.50
2007,12,03,12,38,10.70
2007,12,03,12,39,10.80
2007,12,03,12,40,10.90
2007,12,03,12,41,11.00
2007,12,03,12,42,11.10
2007,12,03,12,43,11.20
2007,12,03,12,44,11.30
2007,12,03,12,45,11.40
2007,12,03,12,46,11.40
2007,12,03,12,47,11.50
2007,12,03,12,48,11.60
2007,12,03,12,49,11.60
2007,12,03,12,50,11.70
2007,12,03,12,51,11.70
2007,12,03,12,52,11.80
2007,12,03,12,53,11.80
2007,12,03,12,54,11.80
2007,12,03,12,55,11.80
2007,12,03,12,56,11.80
2007,12,03,12,57,11.80
2007,12,03,12,58,11.90
2007,12,03,12,59,11.90
2007,12,03,13,00,11.90
2007,12,03,13,01,11.90
2007,12,03,13,02,11.90
2007,12,03,13,03,11.80
2007,12,03,13,04,11.80
2007,12,03,13,05,11.80
2007,12,03,13,06,11.80
2007,12,03,13,07,11.80
2007,12,03,13,08,11.80
2007,12,03,13,09,11.80
2007,12,03,13,10,11.80
2007,12,03,13,11,11.80
2007,12,03,13,12,11.80
2007,12,03,13,13,11.80
2007,12,03,13,14,11.80
2007,12,03,13,15,11.80
2007,12,03,13,16,11.80
2007,12,03,13,17,11.70
2007,12,03,13,18,11.70
2007,12,03,13,19,11.70
2007,12,03,13,20,11.70
2007,12,03,13,21,11.70
2007,12,03,13,22,11.70
2007,12,03,13,23,11.70
2007,12,03,13,24,11.70
2007,12,03,13,25,11.70
2007,12,03,13,26,11.70
2007,12,03,13,27,11.70
2007,12,03,13,28,11.60
2007,12,03,13,29,11.60
2007,12,03,13,30,11.60
2007,12,03,13,31,11.60
2007,12,03,13,32,11.70
2007,12,03,13,33,11.70
2007,12,03,13,34,11.70
2007,12,03,13,35,11.80
2007,12,03,13,36,11.80
2007,12,03,13,37,11.80
2007,12,03,13,38,11.80
2007,12,03,13,39,11.80
2007,12,03,13,40,11.80
2007,12,03,13,41,11.90
2007,12,03,13,42,11.90
2007,12,03,13,43,11.90
2007,12,03,13,44,11.90
2007,12,03,13,45,11.90
2007,12,03,13,46,12.00
2007,12,03,13,47,12.00
2007,12,03,13,48,12.00
2007,12,03,13,49,12.00
2007,12,03,13,50,12.00
2007,12,03,13,51,12.00
2007,12,03,13,52,12.00
2007,12,03,13,53,12.00
2007,12,03,13,54,12.00
2007,12,03,13,55,11.90
2007,12,03,13,56,11.90
2007,12,03,13,57,11.90
2007,12,03,13,58,11.90
2007,12,03,13,59,11.90
2007,12,03,14,00,11.90
2007,12,03,14,01,11.90
2007,12,03,14,02,11.90
2007,12,03,14,03,11.90
2007,12,03,14,04,12.00
2007,12,03,14,05,12.00
2007,12,03,14,06,12.00
2007,12,03,14,07,12.00
2007,12,03,14,08,12.00
2007,12,03,14,09,12.00
2007,12,03,14,10,12.00
2007,12,03,14,11,11.90
2007,12,03,14,12,11.90
2007,12,03,14,13,11.90
2007,12,03,14,14,11.90
2007,12,03,14,15,11.90
2007,12,03,14,16,11.90
2007,12,03,14,17,11.90
2007,12,03,14,18,11.90
2007,12,03,14,19,11.90
2007,12,03,14,20,11.90
2007,12,03,14,21,11.90
2007,12,03,14,22,11.90
2007,12,03,14,23,11.90
2007,12,03,14,24,11.90
2007,12,03,14,25,11.90
2007,12,03,14,26,11.80
2007,12,03,14,27,11.80
2007,12,03,14,28,11.80
2007,12,03,14,29,11.80
2007,12,03,14,30,11.80
2007,12,03,14,31,11.80
2007,12,03,14,32,11.80
2007,12,03,14,33,11.80
2007,12,03,14,34,11.80
2007,12,03,14,35,11.80
2007,12,03,14,36,11.80
2007,12,03,14,37,11.80
2007,12,03,14,38,11.80
2007,12,03,14,39,11.80
2007,12,03,14,40,11.80
2007,12,03,14,41,11.80
2007,12,03,14,42,11.80
2007,12,03,14,43,11.70
2007,12,03,14,44,11.70
2007,12,03,14,45,11.60
2007,12,03,14,46,11.60
2007,12,03,14,47,11.60
2007,12,03,14,48,11.60
2007,12,03,14,49,11.60
2007,12,03,14,50,11.60
2007,12,03,14,51,11.60
2007,12,03,14,52,11.60
2007,12,03,14,53,11.60
2007,12,03,14,54,11.60
2007,12,03,14,55,11.60
2007,12,03,14,56,11.60
2007,12,03,14,57,11.60
2007,12,03,14,58,11.60
2007,12,03,14,59,11.60
2007,12,03,15,00,11.60
2007,12,03,15,01,11.60
2007,12,03,15,02,11.50
2007,12,03,15,03,11.40
2007,12,03,15,04,11.40
2007,12,03,15,05,11.40
2007,12,03,15,06,11.40
2007,12,03,15,07,11.40
2007,12,03,15,08,11.30
2007,12,03,15,09,11.30
2007,12,03,15,10,11.30
2007,12,03,15,11,11.30
2007,12,03,15,12,11.20
2007,12,03,15,13,11.20
2007,12,03,15,14,11.20
2007,12,03,15,15,11.20
2007,12,03,15,16,11.20
2007,12,03,15,17,11.20
2007,12,03,15,18,11.20
2007,12,03,15,19,11.10
2007,12,03,15,20,11.10
2007,12,03,15,21,11.10
2007,12,03,15,22,11.10
2007,12,03,15,23,11.10
2007,12,03,15,24,11.10
2007,12,03,15,25,11.10
2007,12,03,15,26,11.10
2007,12,03,15,27,11.10
2007,12,03,15,28,11.10
2007,12,03,15,29,11.10
2007,12,03,15,30,11.10
2007,12,03,15,31,11.10
2007,12,03,15,32,11.10
2007,12,03,15,33,11.20
2007,12,03,15,34,11.20
2007,12,03,15,35,11.20
2007,12,03,15,36,11.20
2007,12,03,15,37,11.20
2007,12,03,15,38,11.20
2007,12,03,15,39,11.20
2007,12,03,15,40,11.20
2007,12,03,15,41,11.20
2007,12,03,15,42,11.20
2007,12,03,15,43,11.20
2007,12,03,15,44,11.20
2007,12,03,15,45,11.20
2007,12,03,15,46,11.20
2007,12,03,15,47,11.20
2007,12,03,15,48,11.20
2007,12,03,15,49,11.20
2007,12,03,15,50,11.20
2007,12,03,15,51,11.20
2007,12,03,15,52,11.10
2007,12,03,15,53,11.10
2007,12,03,15,54,11.10
2007,12,03,15,55,11.10
2007,12,03,15,56,11.10
2007,12,03,15,57,11.10
2007,12,03,15,58,11.10
2007,12,03,15,59,11.10
2007,12,03,16,00,11.10
2007,12,03,16,01,11.10
2007,12,03,16,02,11.10
2007,12,03,16,03,11.10
2007,12,03,16,04,11.10
2007,12,03,16,05,11.10
2007,12,03,16,06,11.10
2007,12,03,16,07,11.10
2007,12,03,16,08,11.10
2007,12,03,16,09,11.10
2007,12,03,16,10,11.10
2007,12,03,16,11,11.10
2007,12,03,16,12,11.10
2007,12,03,16,13,11.10
2007,12,03,16,14,10.90
2007,12,03,16,15,10.90
2007,12,03,16,16,10.90
2007,12,03,16,17,10.90
2007,12,03,16,18,10.90
2007,12,03,16,19,10.80
2007,12,03,16,20,10.80
2007,12,03,16,21,10.90
2007,12,03,16,22,10.90
2007,12,03,16,23,10.90
2007,12,03,16,24,10.90
2007,12,03,16,25,10.80
2007,12,03,16,26,10.80
2007,12,03,16,27,10.80
2007,12,03,16,28,10.80
2007,12,03,16,29,10.70
2007,12,03,16,30,10.70
2007,12,03,16,31,10.70
2007,12,03,16,32,10.70
2007,12,03,16,33,10.70
2007,12,03,16,34,10.70
2007,12,03,16,35,10.80
2007,12,03,16,36,10.80
2007,12,03,16,37,10.80
2007,12,03,16,38,10.80
2007,12,03,16,39,10.80
2007,12,03,16,40,10.80
2007,12,03,16,41,10.80
2007,12,03,16,42,10.80
2007,12,03,16,43,10.80
2007,12,03,16,44,10.80
2007,12,03,16,45,10.70
2007,12,03,16,46,10.70
2007,12,03,16,47,10.70
2007,12,03,16,48,10.70
2007,12,03,16,49,10.70
2007,12,03,16,50,10.70
2007,12,03,16,51,10.60
2007,12,03,16,52,10.60
2007,12,03,16,53,10.70
2007,12,03,16,54,10.70
2007,12,03,16,55,10.70
2007,12,03,16,56,10.70
2007,12,03,16,57,10.70
2007,12,03,16,58,10.70
2007,12,03,16,59,10.80
2007,12,03,17,00,10.80
2007,12,03,17,01,10.80
2007,12,03,17,02,10.80
2007,12,03,17,03,10.80
2007,12,03,17,04,10.80
2007,12,03,17,05,10.70
2007,12,03,17,06,10.70
2007,12,03,17,07,10.70
2007,12,03,17,08,10.70
2007,12,03,17,09,10.70
2007,12,03,17,10,10.70
2007,12,03,17,11,10.70
2007,12,03,17,12,10.80
2007,12,03,17,13,10.80
2007,12,03,17,14,10.80
2007,12,03,17,15,10.80
2007,12,03,17,16,10.80
2007,12,03,17,17,10.80
2007,12,03,17,18,10.80
2007,12,03,17,19,10.80
2007,12,03,17,20,10.80
2007,12,03,17,21,10.80
2007,12,03,17,22,10.80
2007,12,03,17,23,10.80
2007,12,03,17,24,10.80
2007,12,03,17,25,10.70
2007,12,03,17,26,10.70
2007,12,03,17,27,10.70
2007,12,03,17,28,10.70
2007,12,03,17,29,10.70
2007,12,03,17,30,10.70
2007,12,03,17,31,10.60
2007,12,03,17,32,10.60
2007,12,03,17,33,10.60
2007,12,03,17,34,10.60
2007,12,03,17,35,10.60
2007,12,03,17,36,10.60
2007,12,03,17,37,10.60
2007,12,03,17,38,10.60
2007,12,03,17,39,10.50
2007,12,03,17,40,10.40
2007,12,03,17,41,10.40
2007,12,03,17,42,10.40
2007,12,03,17,43,10.40
2007,12,03,17,44,10.40
2007,12,03,17,45,10.30
2007,12,03,17,46,10.30
2007,12,03,17,47,10.30
2007,12,03,17,48,10.30
2007,12,03,17,49,10.30
2007,12,03,17,50,10.30
2007,12,03,17,51,10.30
2007,12,03,17,52,10.30